Regional Weather Roundup
Issued by NWS Charleston, SC

Current Version | Previous Version | Graphics & Text | Print | Product List | Glossary On
Versions: 1 2 3 4 5 6 7 8 9 10 11 12 13 14 15 16 17 18 19 20 21 22 23 24 25 26 27 28 29 30 31 32 33 34 35 36 37 38 39 40 41 42 43 44 45 46 47 48 49 50
000
ASUS42 KCHS 261926
RWRCHS

REGIONAL WEATHER ROUNDUP
NATIONAL WEATHER SERVICE CHARLESTON SC
300 PM EDT THU MAR 26 2015

NOTE: "FAIR" INDICATES FEW OR NO CLOUDS BELOW 12,000 FEET WITH NO
SIGNIFICANT WEATHER AND/OR OBSTRUCTIONS TO VISIBILITY.

NOT ALL STATIONS ARE QUALITY CONTROLLED BY THE NATIONAL
WEATHER SERVICE. USE DATA WITH CAUTION...ESPECIALLY
DEWPOINT OBSERVATIONS.

SCZ027-030-031-034>040-042>050-262000-
...SOUTHEAST SOUTH CAROLINA...

CITY           SKY/WX    TMP DP  RH WIND       PRES   REMARKS
N CHARLESTON   PTSUNNY   78  58  49 S12G21    29.90F
WATERFRONT PRK   N/A     64 N/A N/A S16         N/A
MOUNT PLEASANT FAIR      70  63  78 S13       29.90F
PINOPOLIS        N/A     75  55  50 W12       29.84F
MONCKS CORNER  FAIR      79  54  41 SW10      29.87F
SUMMERVILLE    FAIR      79  54  41 SW6       29.89F
BEAUFORT MCAS  CLOUDY    73  63  70 SE9       29.91F
BEAUFORT ARPT  FAIR      70  63  78 S7        29.91F
HILTON HEAD IS CLOUDY    66  63  88 S5        29.95F
WALTERBORO     MOCLDY    77  54  44 SW10      29.89F
ALLENDALE      CLOUDY    79  55  44 SW7G13    29.88F

...SOUTHERN MIDLANDS AND PEE DEE...

CITY           SKY/WX    TMP DP  RH WIND       PRES   REMARKS
GEORGETOWN     NOT AVBL
KINGSTREE      NOT AVBL
ORANGEBURG     PTSUNNY   77  55  46 SW12      29.88F
BARNWELL       FAIR      81  57  44 SW12G17   29.89F
AIKEN          MOCLDY    73  52  46 W15       29.91F
MANNING        MOCLDY    75  52  43 SW8G20    29.87F
COLUMBIA       CLOUDY    77  56  48 SW10G20   29.85F
SUMTER         PTSUNNY   78  57  48 SW12      29.85F
FLORENCE       PTSUNNY   77  56  48 SW13G21   29.86F
MYRTLE BEACH   PTSUNNY   66  57  72 SW14      29.93S
N MYRTLE BEACH CLOUDY    66  60  81 S16G24    29.90F

$$

GAZ063-065-086>088-099>101-113>116-118-119-134>141-150-262000-
...SOUTHEAST GEORGIA...

CITY           SKY/WX    TMP DP  RH WIND       PRES   REMARKS
SAVANNAH ARPT  CLOUDY    77  57  50 S9        29.91F
HUNTER AAF     CLOUDY    73  64  75 S10       29.90F
FORT STEWART   CLOUDY    76  57  52 SW8       29.90F
STATESBORO     PTSUNNY   77  58  51 SW9       29.90F
SYLVANIA       MOCLDY    78  58  51 SW8       29.90F
CLAXTON        MOCLDY    77  61  57 S5        29.90F

...CSRA...CENTRAL AND FAR SOUTHEAST GEORGIA...

CITY           SKY/WX    TMP DP  RH WIND       PRES   REMARKS
THOMSON        CLOUDY    75  62  63 SW5       29.92F
AUGUSTA-BUSH   CLOUDY    76  56  49 SW10      29.88F
AUGUSTA-DANIEL CLOUDY    76  55  48 SW9G16    29.89F
SWAINSBORO     CLOUDY    77  43  29 SW8G17    29.91F
VIDALIA        CLOUDY    75  59  57 SW10      29.92F
EASTMAN        CLOUDY    75  60  59 SW8       29.94F
HAZLEHURST     MOCLDY    75  59  57 S6        29.91F
ALMA           CLOUDY    75  59  57 S9        29.93F
WAYCROSS       CLOUDY    79  65  62 SW12      29.92F
JESUP          FAIR      77  63  61 SW7       29.92F
BAXLEY         PTSUNNY   77  61  57 S9G16     29.92F
BRUNSWICK      CLOUDY    75  61  60 S6        29.93F
SAINT SIMONS   CLOUDY    72  62  71 SW9       29.94F

$$

SCZ027-028-034-036>038-045-046-048>050-GAZ119-141-262000-
...LAKE AND SUPPLEMENTAL COASTAL OBSERVATIONS...

STATION/POSITION TIME  TEMP    WIND        PRES    WAVE   SWELL
                       AIR SEA DIR/SP/G            HT/PER HT/PER/DIR
                 (UTC) (F)     (DEG/KT/KT) (MB)    (FT/S) (FT/S/D)
UPR LAKE MARION  NOT AVBL
WINYAH BAY       1800   71     180/ 11     1012.0
LAKE MURRAY      1900   74     230/ 11/ 18 1010.5F
ACE BASIN NERRS  1800   74                   N/A
FORT PULASKI     1900   68 61  190/  3/  5 1013.7F
SAPELO ISLAND    1900   68     190/ 10     1014.0F

$$

ANZ835-935-AMZ111-154-330-350-352-354-370-450-454-472-262000-
...C-MAN AND BUOY OBSERVATIONS...

STATION/POSITION TIME  TEMP    WIND        PRES    WAVE   SWELL
                       AIR SEA DIR/SP/G            HT/PER HT/PER/DIR
                 (UTC) (F)     (DEG/KT/KT) (MB)    (FT/S) (FT/S/D)
BUOY 41004       1850   68 71  250/ 12/ 16 1013.6F   5/ 8   5/ 8
BUOY 41008       1850   63 62  210/  8/ 10 1013.9F   3/ 8   3/110/ 8
FOLLY BEACH CMAN 1900   61     200/ 12/ 14 1013.5F
CAPERS NEARSHORE 1800   61     220/ 14/ 16   N/A
FRIPP NEARSHORE  1800   61     210/ 12/ 14 1014.3F


STATION/POSITION TIME  TEMP    WIND        PRES    WAVE   SWELL
                       AIR SEA DIR/SP/G            HT/PER HT/PER/DIR
                 (UTC) (F)     (DEG/KT/KT) (MB)    (FT/S) (FT/S/D)
5E ST. MARYS GA  1821      63                N/A     3/ 8
FRYING PAN BUOY  1850   69 68  230/ 14/ 17 1014.0F
BUOY 41025       NOT AVBL
CAPE LOOKOUT NC  1900   65     180/ 16/ 17 1011.5F
BUOY 41002       1850   70 69  170/ 21/ 27 1017.0F   7/ 6
BUOY 41010       1820   77 76  170/ 16/ 17 1015.7F
ST AUGUSTINE FL  1900   65 62  140/  7/  8 1014.8F


$$


USA.gov is the U.S. government's official web portal to all federal, state and local government web resources and services.